Temperature
13 13 13 13 13 13 14 14 14 14 14 14 14 14 14 14 14 14 14 14 14 14 14 14 14 14 14 14 14 14 14 14 14 14 14 15 15 15 15 15 15 15 15
13 13 13 13 13 13 13 14 14 14 14 14 14 14 14 14 14 14 14 14 14 14 14 14 14 14 14 14 14 14 14 14 14 14 14 14 14 14 14 14 14 14 14
13 13 13 13 13 13 13 13 13 13 14 14 14 14 13 13 13 13 13 13 13 14 14 14 14 14 14 14 14 14 14 14 14 14 14 14 14 14 14 14 14 14 14
13 13 13 13 13 13 13 13 13 13 13 13 13 13 13 13 13 13 13 13 13 13 13 14 14 14 14 14 14 14 14 14 14 14 14 14 14 14 14 14 14 14 14
13 13 13 12 12 13 13 13 13 13 13 13 13 13 13 13 13 13 13 13 13 13 13 13 13 13 13 13 13 13 13 13 13 14 14 14 14 14 13 13 14 13 13
12 12 12 12 12 12 13 13 13 13 13 13 13 13 13 13 12 12 12 12 13 13 13 13 13 13 13 13 13 13 13 13 13 13 13 13 13 13 13 13 13 13 13
12 12 12 12 12 12 12 12 12 12 12 12 12 12 12 12 12 12 12 12 12 12 12 13 13 13 13 13 13 13 13 13 13 13 13 13 13 13 13 13 13 13 13
12 12 12 11 12 12 12 12 12 12 12 12 12 12 12 12 12 12 12 12 12 12 12 12 12 12 12 12 12 12 12 12 12 13 13 12 12 12 12 12 13 13 13
11 11 11 11 11 11 12 12 12 12 12 12 12 12 12 12 12 12 12 12 11 11 11 12 12 12 12 12 12 12 12 12 12 12 12 12 12 12 12 12 12 12 12
11 11 11 11 11 11 11 11 12 11 12 12 12 12 12 12 12 12 12 11 11 11 11 11 11 12 12 12 12 11 11 12 12 12 12 11 11 11 11 11 11 12 12
10 10 11 11 11 11 11 11 11 11 11 11 11 12 12 12 12 11 11 11 11 11 11 11 11 11 11 11 11 11 11 11 11 11 11 11 11 11 11 11 11 11 11
10 10 10 10 10 10 10 11 11 11 11 11 11 11 11 11 11 11 11 11 11 11 11 11 11 11 11 11 11 11 11 11 11 11 11 10 10 10 10 10 10 10 10
9 9 9 9 10 10 10 10 10 10 10 11 11 11 11 11 11 11 11 10 10 11 11 11 11 11 11 11 11 10 10 10 10 10 10 10 10 10 10 10 10 10 10
9 9 9 9 9 9 10 10 10 10 10 10 10 10 10 10 10 10 10 10 10 10 10 10 10 10 10 10 10 10 10 10 10 10 10 10 9 9 9 9 9 9 9
8 9 8 9 9 9 9 9 10 10 10 10 10 10 10 10 10 10 10 10 10 10 10 10 10 10 10 10 10 10 10 10 10 9 9 9 9 9 9 9 9 9 9
8 8 8 8 8 9 9 9 9 9 9 9 9 10 9 9 9 9 9 9 9 9 9 9 9 9 9 9 9 9 9 9 9 9 9 9 9 9 8 8 8 8 8
8 8 8 8 8 8 8 9 9 9 9 9 9 9 9 9 9 9 9 9 9 9 9 9 9 9 9 9 9 9 9 8 8 8 8 8 8 8 8 8 8 8 8
8 8 8 8 8 8 8 8 8 8 8 9 9 9 9 9 9 9 9 8 8 8 8 8 8 8 8 8 8 8 8 8 8 8 8 8 8 8 8 8 8 8 7
7 7 7 7 7 7 7 8 8 8 8 8 8 8 8 8 8 8 8 8 8 8 8 8 8 8 8 8 8 7 7 7 7 7 7 7 7 7 7 7 7 7 7
6 7 7 7 7 7 7 7 7 7 7 8 8 8 8 8 8 8 8 8 8 8 8 8 8 7 7 7 7 7 7 6 6 6 6 7 7 7 7 7 7 7 7
6 6 6 6 6 6 6 7 7 7 7 7 7 7 7 7 7 7 7 7 7 7 7 7 7 7 7 7 7 6 6 6 6 6 6 6 6 6 6 6 6 6 6
6 6 6 6 6 6 6 6 6 6 7 7 7 7 7 7 7 7 7 7 7 7 7 7 7 7 6 6 6 6 5 5 5 5 5 5 5 5 5 5 5 5 5
5 5 5 5 5 5 5 5 5 6 6 6 6 6 6 6 6 7 6 6 6 6 6 6 6 7 6 6 6 6 5 5 5 5 5 5 5 5 5 5 5 5 5
5 5 5 5 5 5 5 5 5 5 5 5 6 6 6 6 6 6 6 6 6 6 6 6 6 6 6 6 5 5 5 5 5 4 4 4 5 5 5 4 4 4 4
4 4 4 4 4 4 4 4 4 5 5 5 5 5 5 5 5 5 6 6 6 6 6 6 5 5 5 5 5 5 5 5 5 5 4 4 4 4 4 4 4 4 4
3 3 3 4 4 4 4 4 4 4 4 4 4 4 5 5 5 5 5 5 5 5 5 5 5 5 5 5 5 5 5 5 5 5 4 4 4 4 3 3 3 4 4
Wind_Speed
3 5 9 10 10 11 11 11 12 12 12 12 13 13 13 13 13 13 13 13 13 13 13 14 15 15 16 17 17 18 19 19 18 18 18 18 18 19 19 18 18 17 19
5 8 10 11 11 11 11 11 11 11 11 12 12 13 13 13 13 13 13 13 13 13 13 14 15 15 16 17 18 18 19 18 18 18 17 17 18 18 18 18 18 17 19
7 8 10 11 11 11 11 12 12 11 11 11 12 12 12 12 13 13 13 13 14 14 14 14 15 16 17 17 18 18 19 18 18 17 16 14 15 17 18 18 19 19 19
8 8 9 11 12 12 11 11 12 12 11 11 12 12 12 12 12 13 13 14 14 14 15 15 15 16 17 17 18 18 18 19 18 17 14 13 14 16 18 18 19 19 19
8 8 9 11 12 12 11 11 12 12 12 12 12 12 13 13 12 12 13 14 14 14 15 15 16 16 17 18 18 18 18 19 18 16 14 13 14 16 17 18 18 18 18
7 8 9 11 11 11 12 12 12 12 12 12 12 13 13 13 13 13 13 13 13 14 15 16 16 17 17 18 18 19 19 19 17 15 14 13 14 17 17 17 18 18 18
7 8 9 11 11 11 11 12 12 12 12 12 13 13 13 13 13 13 13 13 13 15 15 16 16 17 17 18 18 18 18 18 16 15 14 13 15 17 17 17 17 17 17
8 8 8 10 11 11 11 11 11 12 12 12 13 13 13 13 13 13 14 14 14 15 15 15 16 17 18 18 18 18 18 17 15 14 13 13 16 17 17 17 17 17 17
9 8 7 8 9 10 10 11 10 11 12 12 13 13 13 13 13 13 14 14 14 15 15 16 16 17 17 18 18 18 18 17 15 13 13 13 16 16 17 17 17 17 17
7 7 7 7 8 8 9 10 10 11 11 12 13 14 14 14 13 13 13 14 15 15 15 16 16 17 17 17 18 18 17 16 14 13 12 14 16 16 16 16 17 17 17
5 4 6 6 7 8 8 9 11 11 11 11 12 14 13 13 12 12 13 14 15 15 15 15 16 16 16 17 17 17 15 13 14 12 12 14 16 16 16 16 16 16 16
5 4 4 5 5 6 7 9 9 9 10 11 11 12 12 12 12 11 13 14 14 14 14 15 15 15 14 14 14 14 13 14 13 11 12 14 15 15 15 15 16 16 16
5 4 4 4 5 5 6 7 8 8 9 10 11 11 11 11 11 11 11 11 12 13 12 12 13 12 12 12 12 13 13 12 12 11 12 14 14 14 14 14 14 14 15
4 4 4 4 4 5 6 6 7 6 7 8 9 11 10 9 8 9 9 9 10 10 11 10 10 12 13 13 13 13 13 12 12 12 13 14 14 14 13 13 13 13 14
4 4 4 4 4 4 5 5 6 6 7 8 9 10 11 9 7 8 8 9 9 9 10 9 10 11 11 12 12 12 12 12 12 12 12 13 13 12 12 12 12 13 13
5 5 4 5 5 5 4 4 5 6 8 8 9 9 11 10 9 8 7 7 8 9 9 10 10 10 9 10 10 11 11 12 12 13 12 13 13 12 11 11 11 12 12
6 5 5 5 5 5 5 5 5 6 7 7 8 9 10 10 10 9 7 6 7 9 10 10 10 10 8 8 8 9 10 11 11 12 12 12 12 12 11 10 10 11 10
5 5 5 5 5 5 5 5 5 6 7 7 8 9 10 10 11 9 7 6 8 9 9 8 6 6 5 5 5 6 7 9 10 10 11 11 11 10 11 11 10 10 9
5 5 5 4 5 5 5 5 6 6 6 6 8 8 9 10 10 9 8 7 9 8 7 6 5 5 5 5 5 5 5 6 7 8 9 10 10 10 10 10 10 9 9
3 4 4 4 3 4 4 4 4 4 4 5 6 7 9 9 10 9 8 8 9 7 5 5 6 5 5 6 6 5 4 5 6 6 6 7 8 9 9 9 8 8 8
3 3 3 3 3 3 3 4 4 3 2 3 4 6 8 8 9 9 7 7 7 6 6 6 6 7 4 5 5 4 4 4 4 3 4 5 6 6 7 8 7 7 7
3 3 3 2 3 3 2 2 3 3 2 3 4 5 7 8 8 8 8 7 6 5 6 6 6 4 3 3 4 4 2 2 2 2 1 2 3 4 5 5 6 6 6
3 3 3 2 3 2 2 2 2 2 2 2 2 2 4 7 7 7 8 8 7 6 6 6 7 6 5 2 2 4 4 3 1 1 1 1 1 2 2 3 4 4 4
4 3 3 3 2 3 3 3 4 4 3 3 3 3 3 6 7 7 8 8 7 6 6 6 5 4 7 5 2 1 2 4 3 1 1 1 0 0 0 1 1 2 3
2 3 3 3 2 2 3 4 4 3 1 2 2 3 2 4 5 7 7 8 7 6 6 6 5 5 5 6 4 2 2 1 2 3 2 1 1 1 1 2 1 1 2
0 1 2 3 2 2 2 3 4 4 3 3 3 4 3 2 3 5 6 7 7 6 6 7 6 6 5 5 4 4 4 3 3 3 3 3 2 2 2 2 3 3 2
Wind_Direction
193 189 158 141 134 129 123 116 112 107 104 102 101 98 95 93 93 92 91 90 89 89 88 88 89 89 89 88 87 86 85 83 83 83 82 84 86 86 85 82 79 78 80
162 164 149 139 133 131 127 121 117 112 108 105 104 103 100 98 96 95 93 93 90 89 90 90 90 91 91 90 89 87 85 83 82 80 79 81 85 86 85 83 82 84 82
131 144 143 138 131 129 129 125 121 116 112 109 108 107 105 102 98 96 95 93 92 91 92 93 92 92 92 91 90 88 86 84 82 79 77 77 82 85 85 84 84 84 83
127 132 139 137 133 129 128 127 123 120 116 114 113 111 108 104 101 99 97 94 91 92 95 94 94 94 93 93 92 89 86 83 81 78 75 75 80 85 86 86 85 84 83
118 122 130 134 135 131 129 127 125 124 122 119 118 115 111 107 105 100 97 94 93 94 97 96 95 95 95 94 92 89 86 83 80 76 73 73 79 84 86 85 85 84 83
111 119 129 126 128 130 130 129 127 125 123 121 121 118 114 111 107 102 99 96 95 99 100 99 98 96 95 94 92 90 87 83 78 74 72 74 80 85 87 86 86 85 83
110 112 125 127 124 122 128 132 129 126 123 121 121 118 114 111 108 104 101 98 98 102 102 101 100 97 95 94 92 92 88 84 78 73 70 75 84 87 87 87 88 87 86
111 104 117 124 121 122 121 126 130 129 125 121 121 119 115 111 109 106 104 102 100 102 101 101 101 97 96 95 92 92 88 84 80 75 72 76 85 87 88 88 87 87 86
107 102 98 108 112 116 118 117 117 122 125 122 120 116 113 112 111 108 106 105 101 98 99 98 98 97 96 94 92 90 87 82 77 74 75 79 85 87 88 88 87 86 85
104 103 102 102 103 105 110 114 117 114 115 119 118 114 111 111 110 108 106 105 103 100 98 96 94 94 95 92 91 89 86 80 75 73 76 84 86 87 88 87 87 86 86
105 101 107 105 105 109 109 107 109 112 111 109 112 111 107 102 101 102 104 104 103 100 99 97 94 91 91 89 88 86 82 78 75 71 76 86 87 87 87 87 87 86 86
140 127 118 114 113 114 115 108 104 109 110 104 110 110 107 105 103 101 101 101 100 97 95 94 92 89 86 84 83 83 81 77 73 70 79 87 88 88 88 89 87 86 86
157 146 133 126 124 122 119 115 109 113 111 109 110 111 109 103 101 96 95 93 93 92 89 88 83 82 84 84 84 83 80 77 73 72 78 89 90 90 90 90 89 89 88
151 154 146 135 132 128 129 128 124 121 118 116 118 117 114 106 102 98 94 94 92 92 91 88 86 86 85 85 85 83 80 78 74 74 75 85 89 88 89 92 93 91 89
160 159 159 150 144 138 131 134 132 134 132 131 128 123 123 118 114 107 101 98 96 98 97 94 92 91 87 83 82 83 80 78 76 75 74 78 86 88 90 91 93 92 89
172 171 167 161 154 144 137 138 140 144 140 137 135 131 128 124 122 118 110 103 102 104 103 101 100 95 89 87 79 77 78 81 77 75 74 72 74 81 88 90 90 91 89
176 173 171 167 155 150 149 151 145 148 145 140 138 136 132 128 126 125 119 113 112 112 109 104 98 94 91 87 79 74 76 81 79 73 71 70 69 70 76 83 86 89 90
172 171 174 170 159 157 155 155 149 150 147 146 145 140 137 135 133 127 123 121 120 116 113 110 106 103 94 89 79 69 71 78 78 76 72 70 69 66 68 72 79 84 90
171 170 169 162 163 159 156 154 150 147 144 148 147 144 144 142 140 135 131 130 127 118 114 118 111 114 110 97 86 70 62 68 73 79 74 72 72 70 69 71 73 75 80
159 157 155 145 146 151 147 141 135 135 139 146 144 149 150 148 146 139 135 134 132 124 121 122 121 111 118 116 96 70 52 54 63 69 73 75 74 73 75 74 72 72 73
132 134 141 143 144 141 154 160 159 167 172 166 153 156 155 151 150 145 141 141 140 139 143 135 131 120 112 121 99 74 37 36 46 46 63 72 70 74 79 79 76 76 71
151 143 137 145 151 155 161 172 169 161 176 177 160 158 159 156 158 157 151 152 148 141 144 144 140 140 143 152 131 124 98 13 2 10 30 78 70 71 74 77 79 77 74
164 166 170 167 155 146 127 115 112 107 117 142 164 176 174 167 168 164 159 156 154 151 162 164 160 154 161 185 153 144 152 191 210 327 350 51 89 80 70 78 82 81 80
199 180 170 171 150 148 144 152 151 166 183 192 186 187 178 172 168 168 163 162 163 162 167 175 169 166 161 170 174 133 146 154 156 179 294 326 1 156 143 91 102 100 92
200 185 179 167 155 146 157 166 169 166 183 166 164 169 176 173 173 172 170 165 168 171 172 173 170 173 175 174 172 155 120 98 123 156 200 246 306 267 233 212 196 164 133
100 168 175 170 172 167 163 175 183 178 167 161 178 181 189 189 180 180 176 173 174 177 180 180 178 179 181 177 174 172 168 166 174 166 184 202 230 268 260 227 213 203 193
Height
1521 1523 1525 1527 1528 1529 1530 1530 1531 1532 1532 1533 1534 1534 1535 1535 1536 1536 1537 1537 1537 1538 1538 1538 1539 1539 1540 1540 1541 1541 1542 1542 1543 1543 1544 1544 1545 1545 1546 1546 1546 1546 1546
1520 1523 1525 1526 1527 1529 1529 1530 1531 1532 1533 1533 1534 1534 1535 1536 1536 1536 1537 1537 1538 1538 1538 1538 1539 1540 1540 1541 1542 1542 1543 1544 1544 1545 1545 1546 1547 1547 1548 1548 1548 1548 1549
1520 1522 1524 1526 1527 1528 1529 1530 1531 1532 1533 1533 1534 1535 1535 1536 1536 1537 1537 1538 1538 1538 1538 1539 1539 1540 1541 1542 1543 1543 1544 1545 1546 1546 1547 1547 1548 1549 1549 1550 1550 1550 1551
1520 1522 1524 1525 1526 1528 1529 1530 1531 1532 1532 1533 1534 1535 1535 1536 1537 1537 1538 1538 1538 1539 1539 1539 1540 1541 1542 1543 1544 1545 1545 1546 1547 1548 1548 1549 1550 1551 1551 1551 1552 1552 1552
1520 1521 1523 1525 1526 1527 1528 1530 1531 1531 1532 1533 1534 1535 1536 1536 1537 1538 1538 1539 1539 1539 1540 1540 1541 1542 1543 1544 1545 1546 1547 1547 1548 1549 1550 1551 1551 1552 1552 1553 1553 1554 1554
1519 1521 1522 1524 1525 1527 1528 1529 1530 1531 1532 1533 1534 1535 1536 1537 1537 1538 1538 1539 1539 1539 1540 1541 1542 1543 1544 1545 1546 1547 1548 1549 1550 1550 1551 1552 1552 1553 1554 1554 1554 1555 1556
1518 1520 1522 1523 1525 1526 1527 1529 1530 1531 1532 1533 1534 1535 1536 1537 1537 1538 1539 1539 1539 1539 1541 1542 1543 1544 1545 1545 1547 1548 1549 1550 1551 1552 1553 1553 1554 1555 1555 1555 1556 1556 1557
1518 1519 1521 1523 1524 1525 1527 1528 1529 1531 1532 1533 1534 1535 1536 1537 1538 1538 1539 1540 1540 1540 1541 1542 1543 1544 1545 1546 1548 1549 1550 1551 1552 1553 1554 1554 1555 1556 1556 1557 1557 1558 1558
1517 1519 1520 1522 1523 1525 1526 1527 1529 1530 1531 1533 1534 1535 1536 1537 1538 1538 1539 1540 1541 1541 1542 1543 1544 1545 1546 1547 1548 1550 1551 1552 1553 1554 1555 1556 1557 1557 1558 1558 1559 1559 1559
1516 1518 1519 1521 1522 1524 1525 1527 1528 1530 1531 1532 1533 1534 1535 1536 1538 1539 1540 1540 1541 1542 1543 1543 1544 1546 1547 1548 1549 1550 1552 1553 1554 1555 1556 1557 1558 1558 1559 1559 1560 1560 1560
1515 1517 1518 1519 1521 1523 1524 1526 1528 1529 1530 1532 1533 1534 1535 1536 1537 1539 1540 1541 1541 1543 1544 1544 1545 1546 1547 1549 1550 1551 1553 1554 1555 1556 1557 1558 1559 1559 1560 1561 1561 1561 1562
1513 1515 1516 1518 1519 1521 1523 1525 1527 1528 1529 1531 1532 1533 1535 1536 1537 1538 1540 1541 1542 1543 1544 1545 1546 1547 1548 1549 1551 1552 1553 1554 1555 1556 1558 1559 1560 1560 1561 1561 1562 1562 1563
1511 1513 1515 1516 1518 1520 1521 1523 1525 1527 1528 1530 1531 1533 1534 1535 1536 1538 1539 1541 1542 1543 1544 1546 1547 1548 1549 1550 1552 1553 1554 1555 1556 1557 1558 1559 1560 1561 1562 1562 1563 1563 1563
1509 1511 1513 1515 1516 1518 1520 1521 1523 1525 1527 1529 1530 1531 1533 1534 1536 1537 1539 1540 1542 1543 1544 1546 1547 1548 1549 1551 1552 1553 1554 1555 1556 1557 1559 1560 1561 1561 1562 1563 1563 1563 1564
1507 1509 1511 1513 1515 1516 1518 1520 1521 1523 1525 1527 1529 1531 1532 1533 1535 1537 1538 1540 1541 1543 1544 1545 1547 1548 1549 1551 1552 1553 1554 1555 1557 1557 1558 1560 1561 1561 1562 1563 1563 1563 1563
1505 1507 1509 1510 1513 1514 1516 1518 1519 1522 1523 1525 1527 1529 1531 1532 1534 1536 1537 1539 1540 1542 1543 1545 1546 1547 1549 1550 1552 1553 1554 1555 1557 1558 1558 1559 1560 1561 1562 1563 1563 1563 1563
1503 1505 1507 1508 1510 1512 1514 1516 1517 1520 1521 1523 1526 1528 1529 1531 1533 1534 1536 1538 1539 1541 1543 1544 1545 1547 1548 1550 1551 1553 1554 1555 1556 1557 1558 1559 1560 1561 1561 1562 1562 1563 1563
1501 1502 1504 1506 1507 1510 1512 1514 1515 1517 1519 1521 1524 1526 1528 1530 1531 1533 1534 1536 1538 1540 1541 1543 1544 1545 1547 1549 1550 1552 1553 1555 1556 1557 1558 1559 1559 1560 1561 1561 1562 1562 1562
1498 1499 1501 1503 1504 1507 1509 1511 1513 1515 1517 1519 1521 1523 1525 1528 1530 1531 1532 1534 1536 1538 1540 1541 1543 1544 1546 1547 1549 1551 1552 1554 1555 1557 1557 1558 1559 1559 1560 1560 1561 1561 1561
1495 1497 1498 1500 1502 1504 1506 1508 1510 1512 1514 1516 1519 1521 1523 1525 1527 1529 1530 1532 1534 1536 1538 1539 1541 1543 1544 1546 1547 1549 1551 1553 1555 1555 1556 1557 1558 1558 1559 1559 1560 1560 1560
1493 1494 1495 1497 1498 1500 1502 1504 1506 1508 1511 1514 1516 1518 1520 1522 1524 1526 1528 1530 1531 1533 1535 1537 1539 1540 1542 1544 1546 1548 1550 1552 1553 1554 1555 1555 1556 1557 1557 1558 1558 1558 1559
1490 1491 1492 1494 1495 1497 1499 1501 1503 1506 1508 1510 1513 1515 1517 1519 1521 1523 1525 1527 1529 1530 1532 1534 1536 1538 1539 1542 1543 1545 1547 1550 1551 1552 1553 1553 1554 1555 1555 1556 1556 1556 1556
1486 1488 1489 1491 1493 1495 1497 1499 1501 1503 1504 1506 1508 1511 1514 1516 1518 1520 1522 1524 1525 1527 1529 1530 1532 1534 1536 1539 1541 1542 1544 1545 1547 1549 1549 1550 1551 1552 1553 1553 1554 1554 1554
1483 1485 1487 1489 1490 1492 1493 1495 1496 1497 1499 1502 1504 1507 1510 1512 1515 1517 1519 1520 1522 1524 1526 1528 1529 1531 1533 1535 1537 1539 1541 1541 1543 1544 1546 1547 1548 1549 1549 1550 1551 1551 1551
1481 1482 1484 1486 1487 1489 1490 1492 1493 1494 1497 1499 1502 1504 1506 1509 1511 1513 1515 1517 1519 1521 1522 1524 1526 1528 1530 1531 1533 1534 1536 1537 1538 1539 1541 1543 1544 1545 1546 1547 1547 1548 1548
1478 1480 1481 1483 1484 1486 1487 1489 1490 1491 1493 1495 1497 1499 1502 1504 1507 1509 1511 1513 1515 1517 1518 1520 1522 1524 1526 1528 1530 1531 1532 1533 1535 1536 1537 1538 1540 1541 1542 1543 1544 1544 1544